loading
|

THOR ABLESTAR DEB, 745

Orbit data source: Space-Track

THOR ABLESTAR DEB, 745 is space debris in LEO originally from a launch on Sat, 28 Sep 1963 UTC launched from the Air Force Western Test Range (AFWTR). Debris objects in space refer to the collection of defunct objects orbiting the Earth. Examples of debris include non-operational satellites, rocket bodies, and fragments generated from explosions, collisions, or faulty payload assembly.

Loading next visibility...
Loading greatness...
THOR ABLESTAR DEB details
Identifier
745, 1963-038E
Orbit
LEO
Last TLE update9 hours ago
Origin
Flag of USUSN BuWeps (US)
ManufacturerUnknown
Mission statusUnknown
MissionUnknown
Bus & MotorUnknown
MassUnknown
Launch date (UTC)
1963-09-28 (61 years ago)
Launch vehicleUnknown
Launch site
Air Force Western Test Range (AFWTR)
Object type
Payload
Rocket body
Debris
Radar Cross SectionSmall (<0.1 m²)

Expand to show TLE details & history

TLE from 9 hours ago
0 THOR ABLESTAR DEB
1 00745U 63038E   24258.97077103  .00000616  00000-0  87829-3 0  9991
2 00745  90.0105 336.4362 0017106   7.4286 168.7833 13.55162953  4709
Epoch: 2024-09-14T23:17Z
Definitive object data (Epoch: 2024-09-14T23:17:54.616Z)
Latitude3.65671°
Longitude172.53846°
Altitude1,068.357 km
Speed7.312 km/s
True Right ascension10h 25m 44s
True Declination3° 38' 09"
Sunlit
Object was in daylight at TLE epoch
Predictive object data (real-time)
Latitude35.45946°
Longitude172.54562°
Altitude1,067.607 km
Speed7.317 km/s
Apparent Right ascension11h 24m 58s
Apparent Declination1° 14' 32"
Sunlit
Object is in daylight
Predictive observer data (real-time)
Local Sidereal Time00:38:47
Azimuth26.851° NE
Elevation-45.517°
Doppler factor1
Orbital elements
Apogee1,063.073 km
Perigee1,037.658 km
Semi-major axis7,428.503 km
Eccentricity0.0017106
Inclination90.0105°
RAAN336.4362°
Arg. of periapsis7.4286°
True anomaly168.82135°
Mean anomaly168.7833°
Eccentric anomaly168.80233°
Mean motion3.38993 °/min
BSTAR0.00087829
Period106.2 mins
No data available

THOR ABLESTAR DEB Visibility forecast

Observer location: 39.9160978°, -105.1181434

THOR ABLESTAR DEB is not visible in the next 10 days
Span
Click to sort rows by Start time (UTC) header in descending order
Start Az.
Max El. time (UTC)
Max El. Az.
Max El.
End time (UTC)
End Az.